N3HBJ Weather Reports


Display with metric or nautical units.
time (UTC)temp
F
wind
direction
speed
MPH
gust
MPH
rain 1hr
in
rain 24hr
in
rain mn
in
humidity
%
barometer
mb
20260901224803 85 159 0.0 2.0 0.00 0.01 0.01 67 1016.2
20260901224303 85 144 0.0 5.0 0.00 0.01 0.01 67 1016.2
20260901223805 86 144 0.0 5.0 0.00 0.01 0.01 66 1016.2
20260901223303 86 156 0.0 4.0 0.00 0.01 0.01 66 1016.2
20260901223035 86 341 0.0 1.0 0.00 0.01 0.01 66 1016.2
20260901222306 86 116 0.0 2.0 0.00 0.01 0.01 66 1016.2
20260901221805 86 117 1.0 8.0 0.00 0.01 0.01 66 1016.2
20260901221527 86 101 1.0 8.0 0.00 0.01 0.01 65 1016.2
20260901220805 87 194 0.0 1.0 0.00 0.01 0.01 65 1016.3
20260901220304 87 139 1.0 6.0 0.00 0.01 0.01 65 1016.3
20260901215804 87 156 1.0 7.0 0.00 0.01 0.01 63 1016.2
20260901215306 87 117 0.0 7.0 0.00 0.01 0.01 64 1016.2
20260901214805 87 86 1.0 5.0 0.00 0.01 0.01 64 1016.3
20260901214303 87 152 1.0 5.0 0.00 0.01 0.01 64 1016.3
20260901213805 87 124 1.0 9.0 0.00 0.01 0.01 65 1016.3
20260901213527 86 171 1.0 9.0 0.00 0.01 0.01 63 1016.2
20260901212804 87 118 1.0 6.0 0.00 0.01 0.01 63 1016.2
20260901212530 87 142 1.0 7.0 0.00 0.01 0.01 63 1016.2
20260901211803 87 117 2.0 11.0 0.00 0.01 0.01 62 1016.3
20260901211258 87 169 3.0 12.0 0.00 0.01 0.01 63 1016.2
20260901211239 87 89 2.0 12.0 0.00 0.01 0.01 62 1016.2
20260901210251 87 163 2.0 8.0 0.00 0.01 0.01 62 1016.3
20260901205750 87 73 2.0 8.0 0.00 0.01 0.01 62 1016.3
20260901205247 87 140 0.0 5.0 0.00 0.01 0.01 62 1016.3
20260901204748 87 157 1.0 8.0 0.00 0.01 0.01 63 1016.4
20260901204246 87 161 1.0 8.0 0.00 0.01 0.01 62 1016.4
20260901204002 87 121 1.0 8.0 0.00 0.01 0.01 63 1016.4
20260901203243 87 156 1.0 8.0 0.00 0.01 0.01 63 1016.4
20260901202741 87 265 1.0 8.0 0.00 0.01 0.01 64 1016.4
20260901202241 87 279 1.0 7.0 0.00 0.01 0.01 62 1016.4
20260901201742 87 206 2.0 10.0 0.00 0.01 0.01 63 1016.4
20260901201239 87 192 2.0 10.0 0.00 0.01 0.01 63 1016.4
20260901200739 87 91 2.0 9.0 0.00 0.01 0.01 63 1016.4
20260901200239 87 169 2.0 9.0 0.00 0.01 0.01 63 1016.3
20260901195739 87 135 2.0 9.0 0.00 0.01 0.01 61 1016.4
20260901195459 87 182 3.0 11.0 0.00 0.01 0.01 61 1016.5
20260901194738 88 224 2.0 11.0 0.00 0.01 0.01 61 1016.3
20260901194241 88 141 1.0 8.0 0.00 0.01 0.01 62 1016.4
20260901193734 88 109 2.0 8.0 0.00 0.01 0.01 64 1016.4
20260901193449 88 134 1.0 10.0 0.00 0.01 0.01 65 1016.4
20260901192729 88 140 2.0 10.0 0.00 0.01 0.01 61 1016.5
20260901192229 88 161 1.0 8.0 0.00 0.01 0.01 61 1016.6
20260901191729 87 130 1.0 8.0 0.00 0.01 0.01 62 1016.5
20260901191230 87 125 2.0 9.0 0.00 0.01 0.01 61 1016.6
20260901190730 87 221 2.0 11.0 0.00 0.01 0.01 60 1016.6
20260901190228 87 163 1.0 11.0 0.00 0.01 0.01 61 1016.6
20260901185952 88 24 2.0 14.0 0.00 0.01 0.01 60 1016.7
20260901185229 88 85 2.0 14.0 0.00 0.01 0.01 64 1016.8
20260901184729 88 74 1.0 10.0 0.00 0.01 0.01 60 1016.8
20260901184449 87 138 1.0 9.0 0.00 0.01 0.01 61 1016.8
20260901183950 87 219 2.0 9.0 0.00 0.01 0.01 62 1016.8
20260901183229 87 99 3.0 14.0 0.00 0.01 0.01 62 1016.9
20260901182730 87 5 4.0 17.0 0.00 0.01 0.01 62 1016.9
20260901182228 88 61 3.0 17.0 0.00 0.01 0.01 60 1016.9
20260901181729 88 163 2.0 16.0 0.00 0.01 0.01 59 1016.9
20260901181227 87 92 2.0 14.0 0.00 0.01 0.01 61 1016.8
20260901180725 87 171 2.0 14.0 0.00 0.01 0.01 61 1016.9
20260901180221 87 130 2.0 13.0 0.00 0.01 0.01 62 1016.9
20260901175722 87 67 2.0 13.0 0.00 0.01 0.01 63 1016.9
20260901175220 87 151 2.0 11.0 0.00 0.01 0.01 62 1017.0
20260901174718 87 124 1.0 7.0 0.00 0.01 0.01 61 1016.9
20260901174708 87 155 2.0 12.0 0.00 0.01 0.01 63 1016.8
20260901173719 87 117 3.0 12.0 0.00 0.01 0.01 63 1016.8
20260901173218 87 83 2.0 9.0 0.00 0.01 0.01 61 1016.9
20260901172718 87 149 1.0 9.0 0.00 0.01 0.01 61 1016.8
20260901172219 87 101 1.0 9.0 0.00 0.01 0.01 61 1016.9
20260901171734 87 85 1.0 6.0 0.00 0.01 0.01 62 1016.9
20260901171219 87 49 1.0 7.0 0.00 0.01 0.01 63 1016.9
20260901170719 86 119 2.0 12.0 0.00 0.01 0.01 64 1016.9
20260901170216 86 67 2.0 12.0 0.00 0.01 0.01 64 1016.9
20260901165715 86 167 2.0 10.0 0.00 0.01 0.01 65 1016.9
20260901165216 85 78 2.0 10.0 0.00 0.01 0.01 64 1016.9
20260901164715 85 180 2.0 13.0 0.00 0.01 0.01 64 1016.9
20260901164217 85 106 2.0 13.0 0.00 0.01 0.01 64 1016.9
20260901163716 85 149 1.0 14.0 0.00 0.01 0.01 65 1016.9
20260901163213 85 273 2.0 14.0 0.00 0.01 0.01 65 1016.9
20260901162713 85 106 3.0 11.0 0.00 0.01 0.01 66 1017.0
20260901162210 84 102 3.0 11.0 0.00 0.01 0.01 66 1017.0
20260901161710 84 92 3.0 12.0 0.00 0.01 0.01 65 1017.0
20260901161210 85 80 2.0 12.0 0.00 0.01 0.01 65 1017.0
20260901160711 85 86 1.0 9.0 0.00 0.01 0.01 67 1017.0
20260901160210 84 131 1.0 9.0 0.00 0.01 0.01 66 1017.0
20260901155709 84 170 1.0 9.0 0.00 0.01 0.01 67 1017.0
20260901155434 84 255 1.0 9.0 0.00 0.01 0.01 68 1017.1
20260901154709 83 130 2.0 8.0 0.00 0.01 0.01 68 1017.1
20260901154208 83 149 3.0 9.0 0.00 0.01 0.01 68 1017.1
20260901153708 83 135 2.0 9.0 0.00 0.01 0.01 67 1017.3
20260901153433 84 70 0.0 5.0 0.00 0.01 0.01 68 1017.4
20260901152931 83 117 0.0 5.0 0.00 0.01 0.01 71 1017.4
20260901152208 83 193 0.0 5.0 0.00 0.01 0.01 71 1017.4
20260901151931 83 184 1.0 7.0 0.00 0.01 0.01 70 1017.4
20260901151206 82 82 1.0 8.0 0.00 0.01 0.01 73 1017.3
20260901150705 82 101 1.0 7.0 0.00 0.01 0.01 73 1017.4
20260901150427 82 83 0.0 5.0 0.00 0.01 0.01 72 1017.4
20260901150145 81 136 0.0 5.0 0.00 0.01 0.01 75 1017.4
20260901145428 80 80 1.0 7.0 0.00 0.01 0.01 77 1017.4
20260901144705 79 111 1.0 7.0 0.00 0.01 0.01 76 1017.4
20260901144204 79 70 1.0 7.0 0.00 0.01 0.01 77 1017.5
20260901143706 78 76 1.0 7.0 0.00 0.01 0.01 78 1017.5
20260901143652 78 43 1.0 7.0 0.00 0.01 0.01 77 1017.6
20260901142924 78 111 1.0 7.0 0.00 0.01 0.01 78 1017.6
20260901142204 78 104 1.0 6.0 0.00 0.01 0.01 79 1017.5
20260901141704 77 88 1.0 7.0 0.00 0.01 0.01 80 1017.5
20260901141204 77 97 1.0 9.0 0.00 0.01 0.01 80 1017.4
20260901140929 76 83 1.0 9.0 0.00 0.01 0.01 80 1017.5
20260901140203 76 64 0.0 7.0 0.00 0.01 0.01 81 1017.4
20260901135704 76 64 1.0 7.0 0.00 0.01 0.01 81 1017.3
20260901135203 75 51 1.0 7.0 0.00 0.01 0.01 82 1017.4
20260901134704 75 93 1.0 7.0 0.00 0.01 0.01 82 1017.4
20260901134203 75 83 0.0 2.0 0.00 0.01 0.01 83 1017.5
20260901133928 75 83 1.0 8.0 0.00 0.01 0.01 83 1017.5
20260901133205 74 84 1.0 8.0 0.00 0.01 0.01 83 1017.5
20260901132703 74 75 0.0 3.0 0.00 0.01 0.01 84 1017.5
20260901132202 74 82 1.0 6.0 0.00 0.01 0.01 85 1017.6
20260901131703 73 80 1.0 6.0 0.00 0.01 0.01 85 1017.6
20260901131202 73 124 0.0 2.0 0.00 0.01 0.01 87 1017.7
20260901130702 73 145 1.0 5.0 0.00 0.01 0.01 88 1017.7
20260901130201 73 187 1.0 5.0 0.00 0.01 0.01 88 1017.7
20260901125701 72 79 0.0 5.0 0.00 0.01 0.01 90 1017.7
20260901125200 72 99 0.0 2.0 0.00 0.02 0.01 92 1017.8
20260901124923 71 101 0.0 2.0 0.01 0.03 0.01 93 1018.1
20260901124156 71 101 0.0 2.0 0.01 0.04 0.01 93 1018.1
20260901123657 71 101 0.0 0.0 0.01 0.04 0.01 93 1018.2
20260901123420 70 101 0.0 0.0 0.01 0.05 0.01 93 1018.3
20260901122651 70 101 0.0 1.0 0.01 0.06 0.01 93 1018.4
20260901122149 70 101 0.0 1.0 0.01 0.08 0.01 93 1018.5
20260901121647 69 100 0.0 0.0 0.01 0.11 0.01 93 1018.4
20260901121416 69 100 0.0 0.0 0.01 0.11 0.01 92 1018.4
20260901120646 69 100 0.0 0.0 0.01 0.12 0.01 92 1018.4
20260901120147 69 100 0.0 0.0 0.01 0.12 0.01 92 1018.4
20260901115647 68 100 0.0 0.0 0.01 0.12 0.01 92 1018.4
20260901115147 68 100 0.0 0.0 0.01 0.13 0.01 92 1018.3
20260901114646 68 100 0.0 0.0 0.00 0.12 0.00 92 1018.2
20260901114147 68 100 0.0 0.0 0.00 0.12 0.00 92 1018.2
20260901113647 68 100 0.0 0.0 0.00 0.12 0.00 92 1018.2
20260901113148 67 100 0.0 0.0 0.00 0.12 0.00 92 1018.2
20260901112646 67 100 0.0 0.0 0.00 0.12 0.00 91 1018.3
20260901112407 67 100 0.0 0.0 0.00 0.12 0.00 91 1018.3
20260901111903 67 100 0.0 0.0 0.00 0.12 0.00 91 1018.3
20260901111143 68 100 0.0 0.0 0.00 0.12 0.00 91 1018.2
20260901110641 68 100 0.0 0.0 0.00 0.12 0.00 91 1018.1
20260901110403 68 100 0.0 0.0 0.00 0.12 0.00 91 1018.1
20260901105637 68 100 0.0 0.0 0.00 0.12 0.00 91 1018.1
20260901105134 68 100 0.0 0.0 0.00 0.12 0.00 92 1018.2
20260901104633 68 100 0.0 0.0 0.00 0.12 0.00 92 1018.1
20260901104131 68 100 0.0 0.0 0.00 0.12 0.00 92 1018.2
20260901103631 68 100 0.0 0.0 0.00 0.12 0.00 92 1018.3
20260901103609 68 100 0.0 0.0 0.00 0.12 0.00 91 1018.3
20260901102631 68 100 0.0 0.0 0.00 0.12 0.00 92 1018.3
20260901102129 68 100 0.0 0.0 0.00 0.12 0.00 92 1018.3
20260901101629 68 100 0.0 0.0 0.00 0.12 0.00 92 1018.2
20260901101356 68 100 0.0 0.0 0.00 0.12 0.00 92 1018.3
20260901100629 68 100 0.0 0.0 0.00 0.12 0.00 91 1018.2
20260901100351 68 100 0.0 0.0 0.00 0.12 0.00 91 1018.1
20260901095628 68 100 0.0 0.0 0.00 0.12 0.00 91 1018.1
20260901095127 68 100 0.0 0.0 0.00 0.12 0.00 91 1017.9
20260901094627 68 100 0.0 0.0 0.00 0.12 0.00 91 1018.1
20260901094613 68 100 0.0 0.0 0.00 0.12 0.00 91 1017.9
20260901093627 68 100 0.0 0.0 0.00 0.12 0.00 91 1017.9
20260901093126 68 100 0.0 0.0 0.00 0.12 0.00 91 1017.8
20260901092623 68 100 0.0 0.0 0.00 0.12 0.00 91 1017.8
20260901092344 68 100 0.0 0.0 0.00 0.12 0.00 91 1018.1
20260901091622 68 100 0.0 0.0 0.00 0.12 0.00 91 1018.1
20260901091121 68 100 0.0 0.0 0.00 0.12 0.00 91 1018.1
20260901091101 68 100 0.0 0.0 0.00 0.12 0.00 91 1018.2
20260901090110 68 100 0.0 0.0 0.00 0.12 0.00 91 1018.2
20260901085610 68 100 0.0 0.0 0.00 0.12 0.00 91 1018.2
20260901085111 67 100 0.0 0.0 0.00 0.12 0.00 91 1018.2
20260901084611 67 100 0.0 0.0 0.00 0.12 0.00 91 1018.2
20260901084334 67 100 0.0 0.0 0.00 0.12 0.00 91 1018.3
20260901083849 67 100 0.0 0.0 0.00 0.12 0.00 91 1018.2
20260901083111 67 100 0.0 0.0 0.00 0.12 0.00 91 1018.2
20260901082611 67 100 0.0 0.0 0.00 0.12 0.00 91 1018.3
20260901082328 67 100 0.0 0.0 0.00 0.12 0.00 91 1018.3
20260901081611 67 100 0.0 0.0 0.00 0.12 0.00 91 1018.3
20260901081111 67 100 0.0 0.0 0.00 0.12 0.00 91 1018.3
20260901080611 67 100 0.0 0.0 0.00 0.12 0.00 91 1018.2
20260901080335 67 100 0.0 0.0 0.00 0.12 0.00 91 1018.2
20260901075611 67 100 0.0 0.0 0.00 0.12 0.00 91 1018.2
20260901075334 67 100 0.0 0.0 0.00 0.12 0.00 91 1018.2
20260901074611 67 100 0.0 0.0 0.00 0.12 0.00 91 1018.3
20260901074111 67 100 0.0 0.0 0.00 0.12 0.00 91 1018.4
20260901073611 67 100 0.0 0.0 0.00 0.12 0.00 91 1018.4
20260901073110 67 100 0.0 0.0 0.00 0.12 0.00 91 1018.4
20260901072609 67 100 0.0 0.0 0.00 0.12 0.00 91 1018.5
20260901072109 67 100 0.0 0.0 0.00 0.12 0.00 91 1018.5
20260901071832 67 100 0.0 0.0 0.00 0.12 0.00 91 1018.4
20260901071109 67 100 0.0 0.0 0.00 0.12 0.00 91 1018.4
20260901070609 67 100 0.0 0.0 0.00 0.12 0.00 91 1018.5
20260901070108 67 100 0.0 0.0 0.00 0.12 0.00 91 1018.5
20260901065829 67 100 0.0 0.0 0.00 0.12 0.00 91 1018.5
20260901065109 67 100 0.0 0.0 0.00 0.12 0.00 91 1018.6
20260901064608 67 100 0.0 0.0 0.00 0.12 0.00 90 1018.7
20260901064108 67 100 0.0 0.0 0.00 0.12 0.00 90 1018.6
20260901063608 67 100 0.0 0.0 0.00 0.12 0.00 90 1018.7
20260901063108 67 100 0.0 0.0 0.00 0.12 0.00 90 1018.7
20260901062609 67 100 0.0 0.0 0.00 0.12 0.00 90 1018.6
20260901062110 67 100 0.0 0.0 0.00 0.12 0.00 90 1018.6
20260901061608 67 100 0.0 0.0 0.00 0.12 0.00 90 1018.8
20260901061107 67 100 0.0 0.0 0.00 0.12 0.00 90 1018.8
20260901060606 67 100 0.0 0.0 0.00 0.12 0.00 90 1018.8
20260901060104 67 100 0.0 0.0 0.00 0.12 0.00 90 1018.8
20260901055605 67 100 0.0 0.0 0.00 0.12 0.00 90 1018.8
20260901055100 67 100 0.0 0.0 0.00 0.12 0.00 90 1018.9
20260901054559 67 100 0.0 0.0 0.00 0.12 0.00 90 1018.9
20260901054059 67 100 0.0 0.0 0.00 0.12 0.00 90 1018.9
20260901053817 67 100 0.0 0.0 0.00 0.12 0.00 90 1018.9
20260901053057 68 100 0.0 0.0 0.00 0.12 0.00 90 1018.9
20260901052812 68 100 0.0 0.0 0.00 0.12 0.00 90 1018.9
20260901052054 68 100 0.0 0.0 0.00 0.12 0.00 90 1018.9
20260901051555 67 100 0.0 0.0 0.00 0.12 0.00 90 1018.8
20260901051052 67 100 0.0 0.0 0.00 0.12 0.00 89 1018.8
20260901050553 68 100 0.0 0.0 0.00 0.12 0.00 89 1018.8
20260901050049 68 100 0.0 0.0 0.00 0.12 0.00 89 1018.7
20260901045548 68 100 0.0 0.0 0.00 0.12 0.00 89 1018.8
20260901045043 68 100 0.0 0.0 0.00 0.12 0.00 89 1018.7
20260901044538 68 100 0.0 0.0 0.00 0.12 0.00 89 1018.7
20260901044032 68 100 0.0 0.0 0.00 0.12 0.00 89 1018.7
20260901043528 68 100 0.0 0.0 0.00 0.12 0.00 89 1018.8
20260901043028 68 100 0.0 0.0 0.00 0.12 0.00 89 1018.8
20260901043019 68 100 0.0 0.0 0.00 0.12 0.00 88 1018.8
20260901042028 69 100 0.0 0.0 0.00 0.12 0.00 88 1018.8
20260901041757 69 100 0.0 0.0 0.00 0.12 0.00 88 1018.9
20260901041026 69 100 0.0 0.0 0.00 0.12 0.00 88 1018.8
20260901040528 69 100 0.0 0.0 0.00 0.12 0.00 88 1018.8
20260901040026 69 100 0.0 0.0 0.00 0.12 0.00 88 1018.8
20260901035524 69 100 0.0 0.0 0.00 0.12 0.12 88 1018.9
20260901035022 69 100 0.0 0.0 0.00 0.12 0.12 88 1018.9
20260901034522 69 100 0.0 0.0 0.00 0.12 0.12 88 1018.9
20260901034022 70 100 0.0 0.0 0.00 0.12 0.12 88 1019.0
20260901033742 70 100 0.0 0.0 0.00 0.12 0.12 87 1019.0
20260901033022 70 100 0.0 0.0 0.00 0.12 0.12 87 1019.0
20260901032520 70 100 0.0 0.0 0.00 0.12 0.12 87 1018.9
20260901032019 70 100 0.0 0.0 0.00 0.12 0.12 87 1018.9
20260901031521 70 100 0.0 0.0 0.00 0.12 0.12 88 1018.9
20260901031020 70 100 0.0 0.0 0.00 0.12 0.12 88 1018.9
20260901030516 70 100 0.0 0.0 0.00 0.12 0.12 87 1019.0
20260901030017 70 100 0.0 0.0 0.00 0.12 0.12 87 1019.0
20260901025513 71 100 0.0 0.0 0.00 0.12 0.12 87 1019.1
20260901025014 71 100 0.0 0.0 0.00 0.12 0.12 87 1019.1
20260901024511 71 100 0.0 0.0 0.00 0.12 0.12 87 1019.2
20260901024010 71 100 0.0 0.0 0.00 0.12 0.12 87 1019.2
20260901023508 71 100 0.0 0.0 0.00 0.12 0.12 86 1019.2
20260901023227 71 100 0.0 0.0 0.00 0.12 0.12 86 1019.3
20260901022953 71 100 0.0 0.0 0.00 0.12 0.12 86 1019.3
20260901022008 71 100 0.0 0.0 0.00 0.12 0.12 86 1019.3
20260901021505 71 100 0.0 0.0 0.00 0.12 0.12 86 1019.4
20260901021003 71 100 0.0 0.0 0.00 0.12 0.12 86 1019.4
20260901020501 71 100 0.0 0.0 0.00 0.12 0.12 85 1019.5
20260901020003 71 100 0.0 0.0 0.00 0.12 0.12 86 1019.5
20260901015459 72 100 0.0 0.0 0.00 0.12 0.12 86 1019.5
20260901015001 72 100 0.0 0.0 0.00 0.12 0.12 85 1019.5
20260901014458 72 100 0.0 0.0 0.00 0.12 0.12 85 1019.5
20260901014220 72 100 0.0 0.0 0.00 0.12 0.12 85 1019.5
20260901013456 72 100 0.0 0.0 0.00 0.12 0.12 85 1019.5
20260901012956 72 100 0.0 0.0 0.00 0.12 0.12 85 1019.5
20260901012455 72 100 0.0 0.0 0.00 0.12 0.12 85 1019.5
20260901012217 72 100 0.0 0.0 0.00 0.12 0.12 85 1019.5
20260901011720 73 100 0.0 0.0 0.00 0.12 0.12 85 1019.5
20260901010955 73 100 0.0 0.0 0.00 0.12 0.12 84 1019.6
20260901010456 73 100 0.0 0.0 0.00 0.12 0.12 84 1019.6
20260901005956 73 100 0.0 0.0 0.00 0.12 0.12 84 1019.5
20260901005455 73 100 0.0 0.0 0.00 0.12 0.12 84 1019.5
20260901004955 73 100 0.0 0.0 0.00 0.12 0.12 84 1019.5
20260901004455 73 100 0.0 0.0 0.00 0.12 0.12 84 1019.6
20260901003954 73 100 0.0 0.0 0.00 0.12 0.12 84 1019.5
20260901003450 73 100 0.0 0.0 0.00 0.12 0.12 83 1019.3
20260901002949 74 100 0.0 0.0 0.00 0.12 0.12 83 1019.3
20260901002448 74 100 0.0 0.0 0.00 0.12 0.12 83 1019.1
20260901002439 74 100 0.0 0.0 0.00 0.12 0.12 83 1019.1
20260901001447 74 100 0.0 0.0 0.00 0.12 0.12 83 1019.1
20260901000947 74 100 0.0 0.0 0.00 0.12 0.12 82 1019.1
20260901000446 74 100 0.0 0.0 0.00 0.12 0.12 82 1018.9
20260831235946 75 100 0.0 0.0 0.00 0.12 0.12 82 1019.0
20260831235438 75 100 0.0 0.0 0.00 0.12 0.12 82 1019.0
20260831234941 75 100 0.0 0.0 0.00 0.12 0.12 81 1018.9
20260831234440 75 100 0.0 0.0 0.00 0.12 0.12 81 1018.7
20260831234203 76 100 0.0 0.0 0.00 0.12 0.12 81 1018.6
20260831233437 76 100 0.0 0.0 0.00 0.12 0.12 80 1018.7
20260831233428 76 100 0.0 0.0 0.00 0.12 0.12 79 1018.7
20260831232437 76 100 0.0 0.0 0.00 0.12 0.12 79 1018.6
20260831231935 77 100 0.0 0.0 0.00 0.12 0.12 78 1018.7
20260831231656 77 100 0.0 0.0 0.00 0.12 0.12 77 1018.6
20260831230933 78 100 0.0 0.0 0.00 0.12 0.12 76 1018.7
20260831230924 78 100 0.0 0.0 0.00 0.12 0.12 75 1018.7
20260831225934 78 100 0.0 0.0 0.00 0.12 0.12 74 1018.7
20260831225432 79 100 0.0 0.0 0.00 0.12 0.12 74 1018.7